User: anonymous   Login
Location: Unspecified
(0.0000°N, 0.0000°E)
Time: 04:36:30
(UTC+00:00)
Language:

AMOS 4 - Orbit

View from above orbital plane
View from above orbital plane
View from above satellite
View from above satellite

Ground track
Ground track

The orbit data is extracted from the following two-line orbital elements,

1 39237U 13045A   18320.66476741  .00000011  00000-0  00000+0 0  9993
2 39237   0.0194 274.3243 0000614 105.7125 339.9966  1.00272722 19128
Epoch (UTC): 16 November 2018 15:57:15
Eccentricity: 0.0000614
inclination: 0.0194°
perigee height: 35783 km
apogee height: 35788 km
right ascension of ascending node: 274.3243°
argument of perigee: 105.7125°
revolutions per day: 1.00272722
mean anomaly at epoch: 339.9966°
orbit number at epoch: 1912

The dashed part of the orbit path shows where the satellite is in the earth's shadow,  

DLR